Home   Weather   Montpelier   Past weeks

Flag for USA Past Weather in Montpelier, Vermont, USA — Yesterday and Last 2 Weeks

Now
73 °F

Partly sunny.


Feels Like: 75 °F
Forecast: 60 / 78 °F
Wind: 5 mph from Southwest

Location: Knapp State Airport

Current Time: Aug 31, 2016 at 5:44:21 PM

Latest Report: Aug 31, 2016 at 4:51 PM


Visibility: 10 mi

Pressure: 29.88 "Hg

Humidity: 69%

Dew Point: 62 °F

Location of MontpelierLocation

Past Weather in Montpelier — Graph

°F

Montpelier Temperature Yesterday

Maximum temperature yesterday: 73 °F (at 1:51 PM)
Minimum temperature yesterday: 50 °F (at 4:51 AM)
Average temperature yesterday: 61 °F

High & Low Weather Summary for the Past Weeks

 TemperatureHumidityPressure
High82 °F (Aug 20, 3:51 PM)100% (Aug 18, 1:51 AM)30.32 "Hg (Aug 18, 1:51 AM)
Low48 °F (Aug 23, 2:51 AM)38% (Aug 24, 3:51 PM)29.79 "Hg (Aug 17, 3:51 AM)
Average67 °F77%30.08 "Hg
* Reported Aug 16 3:51 PM — Aug 31 3:51 PM, Montpelier, Weather by CustomWeather, © 2016

Note: Actual official high and low records may vary slightly from our data, if they occured in-between our weather recording intervals... More about our weather records

Advertising

Montpelier Weather History for the Previous 24 Hours

Scroll right to see more
 ConditionsComfort  
Time TempWeatherWind HumidityBarometerVisibility
3:51 PM
Wed, Aug 31
75 °FPassing clouds.5 mph66%29.89 "Hg10 mi
2:51 PM74 °FPartly sunny.5 mph69%29.90 "Hg10 mi
1:51 PM71 °FScattered clouds.No wind73%29.92 "Hg10 mi
12:51 PM68 °FOvercast.9 mph82%29.94 "Hg10 mi
11:51 AM68 °FOvercast.7 mph82%29.96 "Hg10 mi
10:51 AM68 °FPartly sunny.3 mph84%29.98 "Hg10 mi
9:51 AM63 °FOvercast.3 mph93%30.00 "Hg10 mi
8:51 AM63 °FPassing clouds.8 mph90%30.00 "Hg10 mi
8:00 AM61 °FThundershowers. Fog.3 mph93%30.02 "Hg6 mi
7:51 AM61 °FLight rain. Fog.3 mph93%30.01 "Hg5 mi
6:51 AM61 °FOvercast.No wind90%30.00 "Hg10 mi
5:51 AM60 °FOvercast.No wind93%29.99 "Hg10 mi
4:51 AM60 °FClear.No wind93%29.99 "Hg10 mi
3:51 AM62 °FPartly cloudy.No wind86%30.01 "Hg10 mi
2:51 AM61 °FMostly cloudy.No wind93%30.02 "Hg10 mi
1:51 AM64 °FOvercast.No wind81%30.02 "Hg10 mi
12:51 AM61 °FPassing clouds.No wind90%30.04 "Hg10 mi
11:51 PM
Tue, Aug 30
60 °FPassing clouds.No wind90%30.05 "Hg10 mi
10:51 PM60 °FClear.No wind90%30.06 "Hg10 mi
9:51 PM61 °FClear.No wind90%30.08 "Hg10 mi
8:51 PM63 °FPassing clouds.No wind84%30.09 "Hg10 mi
7:51 PM64 °FPassing clouds.No wind84%30.09 "Hg10 mi
6:51 PM68 °FSunny.No wind73%30.09 "Hg10 mi
5:51 PM71 °FSunny.3 mph61%30.10 "Hg10 mi
Weather by CustomWeather, © 2016

See weather overviewHow to use our weather pages